Temp_Advection
nan nan nan nan nan nan nan nan nan nan nan nan nan nan nan nan nan nan nan nan nan nan
nan -0 -0 -0 -0 -0 -0 -0 -0 -0 -0 -0 -0 -0 -0 -0 -0 -0 -0 0 1 nan
nan -0 -0 -0 -0 -0 -0 -0 -0 -0 -0 -0 -0 -0 -0 -0 -0 -0 -0 0 0 nan
nan -0 -0 -0 0 0 0 0 0 -0 -0 -0 -0 -0 -0 -0 -0 -0 -0 -0 -0 nan
nan -0 -0 -0 -0 0 -0 -0 -0 0 -0 -0 -0 -0 -0 -0 -0 0 -0 -0 -0 nan
nan -0 -0 -0 -0 -0 -0 -1 -1 -1 -1 -1 -1 -1 -1 -0 -0 -0 -0 -0 -1 nan
nan -0 -1 -1 -1 -1 -1 -1 -1 -1 -1 -1 -1 -1 -1 -1 -1 -0 -0 -0 -0 nan
nan -0 -0 -1 -1 -1 -1 -1 -1 -1 -1 -1 -1 -1 -1 -1 -1 -1 -1 -0 -0 nan
nan -0 -0 -0 -0 -1 -1 -1 -0 -1 -1 -1 -1 -1 -1 -1 -1 -2 -2 -1 -1 nan
nan -1 -1 -1 -1 -1 -1 -1 -1 -1 -1 -1 -1 -1 -1 -1 -1 -2 -2 -2 -2 nan
nan -0 -1 -1 -1 -1 -1 -1 -1 -1 -1 -1 -1 -1 -1 -1 -1 -1 -1 -1 -2 nan
nan -1 -1 -1 -1 -1 -1 -1 -0 -0 -0 -0 -1 -1 -1 -1 -1 -1 -2 -1 -1 nan
nan -1 -1 -0 -0 -0 -0 -0 -0 -0 0 0 -0 -0 -0 -0 -0 -1 -2 -2 -2 nan
nan nan nan nan nan nan nan nan nan nan nan nan nan nan nan nan nan nan nan nan nan nan
Wind_Speed
3 4 7 8 9 12 10 12 13 17 13 16 20 25 35 35 35 29 38 47 52 47
7 5 6 7 7 6 3 3 7 6 10 11 10 13 14 36 25 29 30 35 34 41
15 13 13 13 14 15 13 14 12 12 11 9 10 10 12 8 10 14 30 33 39 40
15 15 13 14 16 14 18 17 16 12 12 13 12 14 11 12 14 13 15 18 28 38
13 12 11 11 11 11 13 12 12 14 13 13 16 16 15 16 16 17 17 13 15 22
6 7 8 9 8 9 11 12 13 13 14 14 14 15 15 16 17 19 21 21 24 16
9 11 12 13 13 14 15 15 16 16 17 17 17 18 18 18 19 19 19 21 21 22
13 14 14 15 17 18 18 19 19 20 19 19 20 21 22 23 23 23 23 22 22 23
14 15 17 19 20 21 22 22 23 24 24 23 23 22 23 25 27 27 27 28 27 25
19 21 22 22 21 22 22 23 23 24 24 24 24 25 25 26 26 27 28 29 30 31
19 19 20 21 23 24 25 26 26 26 25 25 23 23 23 23 25 26 27 28 29 30
20 21 23 25 26 27 29 30 30 29 29 28 27 26 25 24 25 25 25 26 27 28
21 24 26 27 29 29 29 29 29 29 27 25 26 24 25 24 25 27 28 27 25 26
23 25 26 26 26 27 27 27 26 26 26 26 24 26 25 24 25 25 27 25 25 26
Wind_Direction
340 298 275 262 261 260 256 269 272 285 282 268 277 291 281 273 262 265 264 247 241 236
85 70 61 69 63 65 16 5 3 308 276 277 275 290 302 261 265 263 260 251 243 234
60 48 35 26 27 26 15 7 357 2 348 316 292 285 293 303 279 281 255 275 247 240
39 30 28 29 18 9 8 350 346 354 350 339 330 323 313 298 295 290 289 289 256 247
18 13 13 14 4 347 332 345 336 333 337 323 319 318 312 303 301 289 287 286 276 278
1 1 6 9 358 342 334 335 334 331 330 329 324 316 307 302 297 292 291 290 280 286
16 7 360 353 348 344 343 339 336 333 332 329 326 320 317 311 305 299 294 292 289 281
354 350 346 343 342 340 338 335 332 328 324 322 318 316 314 312 308 305 301 296 292 289
336 333 332 332 333 332 330 328 326 325 323 321 317 313 311 308 306 305 302 299 296 294
333 331 330 329 327 324 323 322 322 322 320 317 315 313 312 309 306 303 302 301 298 296
318 324 328 330 331 331 330 331 331 328 326 322 321 317 312 308 305 303 299 298 297 295
330 332 332 332 331 329 326 325 324 324 324 324 324 324 321 317 309 304 300 296 294 295
329 327 326 325 324 323 322 320 319 318 318 318 319 321 320 318 312 312 311 308 299 290
327 325 325 325 326 326 326 324 321 317 314 313 314 315 316 315 310 311 312 311 310 305
Height
1468 1467 1467 1467 1467 1466 1466 1467 1466 1465 1464 1464 1462 1462 1461 1460 1460 1460 1459 1459 1459 1463
1466 1466 1465 1463 1463 1461 1463 1462 1460 1460 1460 1458 1456 1456 1453 1451 1450 1451 1451 1451 1452 1455
1466 1466 1464 1462 1463 1460 1461 1460 1460 1457 1456 1454 1454 1453 1451 1449 1447 1447 1444 1444 1445 1448
1466 1465 1464 1463 1462 1464 1460 1460 1458 1456 1454 1453 1451 1450 1447 1446 1445 1444 1444 1443 1439 1439
1467 1467 1465 1463 1461 1462 1461 1460 1459 1457 1452 1451 1450 1447 1444 1443 1442 1440 1439 1439 1437 1438
1470 1469 1466 1464 1464 1462 1460 1458 1456 1454 1452 1449 1447 1445 1442 1440 1438 1437 1435 1434 1434 1433
1468 1466 1464 1463 1461 1459 1457 1455 1453 1451 1448 1445 1444 1442 1439 1436 1435 1433 1431 1430 1430 1429
1467 1465 1463 1461 1458 1456 1454 1452 1450 1447 1445 1442 1440 1437 1434 1432 1430 1427 1425 1424 1423 1422
1466 1464 1461 1458 1455 1452 1449 1447 1445 1442 1439 1437 1436 1433 1430 1427 1425 1422 1420 1418 1415 1414
1463 1460 1457 1454 1452 1449 1446 1444 1441 1437 1434 1432 1430 1426 1423 1422 1419 1417 1414 1412 1410 1407
1461 1458 1454 1451 1447 1444 1441 1437 1434 1431 1429 1425 1423 1420 1418 1416 1413 1410 1409 1406 1403 1400
1456 1453 1449 1446 1443 1439 1435 1432 1428 1425 1421 1418 1415 1413 1410 1408 1406 1404 1402 1399 1397 1394
1451 1448 1445 1441 1438 1435 1431 1427 1424 1420 1418 1415 1411 1410 1407 1405 1401 1397 1393 1391 1390 1388
1447 1443 1440 1436 1433 1429 1426 1422 1419 1415 1413 1410 1407 1404 1402 1399 1396 1392 1388 1385 1382 1379